Flugplatz Uetersen/Heist

EDHE · Sleeswijk-Holstein, Duitsland

METAR historie EDHE · Uetersen/Heist Airport

Hieronder zie je METAR's van de afgelopen dagen. Kies een jaar om door oudere METAR's te bladeren, vanaf het jaar 2007.

1 december 2022

Tijd Code Weer Temp. Zicht Plafond Wind METAR/SPECI
02:50
I
4 °C 4,7 km 1.100 ft 100° 100° 3 kt METAR EDHI 010150Z AUTO 10003KT 060V150 4700 // SCT009/// OVC011/// 04/04 Q1027
02:20
I
4 °C 4,8 km 900 ft 090° 090° 3 kt METAR EDHI 010120Z AUTO 09003KT 040V130 4800 // BKN009/// OVC012/// 04/04 Q1027
01:50
I
4 °C 4,7 km 1.100 ft 090° 090° 3 kt METAR EDHI 010050Z AUTO 09003KT 050V120 4700 // SCT008/// OVC011/// 04/04 Q1027
01:20
I
4 °C 4,3 km 900 ft 090° 090° 3 kt METAR EDHI 010020Z AUTO 09003KT 060V120 4300 // OVC009/// 04/04 Q1027
00:50
I
4 °C 4,2 km 800 ft 090° 090° 3 kt METAR EDHI 302350Z AUTO 09003KT 050V130 4200 // OVC008/// 04/04 Q1027
00:20
I
4 °C 4 km 900 ft 080° 080° 3 kt METAR EDHI 302320Z AUTO 08003KT 040V120 4000 // SCT007/// BKN009/// OVC026/// 04/04 Q1027

30 november 2022

Tijd Code Weer Temp. Zicht Plafond Wind METAR/SPECI
23:50
I
4 °C 4 km 700 ft 080° 080° 4 kt METAR EDHI 302250Z AUTO 08004KT 4000 // BKN007/// OVC024/// 04/04 Q1027
23:20
I
4 °C 3,6 km 800 ft 090° 090° 3 kt METAR EDHI 302220Z AUTO 09003KT 050V150 3600 // BKN008/// OVC020/// 04/04 Q1027
22:50
I
4 °C 3,6 km 700 ft 090° 090° 3 kt METAR EDHI 302150Z AUTO 09003KT 050V140 3600 // OVC007/// 04/04 Q1027
22:20
I
4 °C 3,5 km 700 ft 100° 100° 3 kt METAR EDHI 302120Z AUTO 10003KT 030V150 3500 // OVC007/// 04/04 Q1027
21:50
I
4 °C 4,1 km 800 ft 090° 090° 3 kt METAR EDHI 302050Z AUTO 09003KT 040V150 4100 // OVC008/// 04/04 Q1027
21:20
I
4 °C 4,2 km 900 ft 090° 090° 4 kt METAR EDHI 302020Z AUTO 09004KT 030V120 4200 // SCT007/// OVC009/// 04/04 Q1027
20:50
I
4 °C 3,9 km 700 ft 090° 090° 4 kt METAR EDHI 301950Z AUTO 09004KT 050V120 3900 // OVC007/// 04/04 Q1027
20:20
I
4 °C 3,8 km 500 ft 090° 090° 4 kt METAR EDHI 301920Z 09004KT 060V130 3800 BR OVC005 04/04 Q1027
19:50
L
4 °C 3,5 km 400 ft 090° 090° 5 kt METAR EDHI 301850Z 09005KT 3500 BR OVC004 04/04 Q1026
19:20
I
4 °C 4,3 km 500 ft 080° 080° 5 kt METAR EDHI 301820Z 08005KT 060V120 4300 BR OVC005 04/04 Q1026
18:50
I
4 °C 4,5 km 500 ft 080° 080° 4 kt METAR EDHI 301750Z 08004KT 040V120 4500 BR OVC005 04/04 Q1026
18:20
I
4 °C 4,3 km 500 ft 080° 080° 5 kt METAR EDHI 301720Z 08005KT 4300 BR OVC005 04/04 Q1026
17:50
I
4 °C 3,8 km 500 ft 050° 050° 3 kt METAR EDHI 301650Z 05003KT 3800 BR OVC005 04/04 Q1026
17:20
I
4 °C 4,1 km 500 ft 080° 080° 4 kt METAR EDHI 301620Z 08004KT 060V120 4100 BR OVC005 04/04 Q1026
16:50
I
4 °C 4,4 km 500 ft 070° 070° 5 kt METAR EDHI 301550Z 07005KT 040V100 4400 BR OVC005 04/04 Q1025
16:20
I
4 °C 4,5 km 500 ft 070° 070° 5 kt METAR EDHI 301520Z 07005KT 040V100 4500 BR OVC005 04/04 Q1025
15:50
I
5 °C 4 km 600 ft 090° 090° 6 kt METAR EDHI 301450Z 09006KT 4000 BR OVC006 05/04 Q1025
15:20
I
5 °C 4,2 km 600 ft 070° 070° 5 kt METAR EDHI 301420Z 07005KT 030V100 4200 BR OVC006 05/04 Q1025
14:50
I
5 °C 5 km 700 ft 080° 080° 5 kt METAR EDHI 301350Z 08005KT 060V120 5000 BR OVC007 05/04 Q1025
14:20
I
5 °C 6 km 700 ft 070° 070° 5 kt METAR EDHI 301320Z 07005KT 040V100 6000 OVC007 05/05 Q1025
13:50
I
5 °C 6 km 800 ft 060° 060° 5 kt METAR EDHI 301250Z 06005KT 6000 OVC008 05/05 Q1025
13:20
I
5 °C 6 km 800 ft 080° 080° 5 kt METAR EDHI 301220Z 08005KT 6000 OVC008 05/05 Q1025
12:50
I
5 °C 6 km 800 ft 080° 080° 5 kt METAR EDHI 301150Z 08005KT 050V110 6000 OVC008 05/05 Q1025
12:20
I
5 °C 6 km 800 ft 080° 080° 5 kt METAR EDHI 301120Z 08005KT 050V110 6000 OVC008 05/05 Q1024
11:50
I
5 °C 7 km 800 ft 080° 080° 6 kt METAR EDHI 301050Z 08006KT 040V100 7000 OVC008 05/04 Q1024
11:20
I
5 °C 7 km 900 ft 080° 080° 6 kt METAR EDHI 301020Z 08006KT 7000 OVC009 05/05 Q1025
10:50
I
5 °C 7 km 900 ft 080° 080° 6 kt METAR EDHI 300950Z 08006KT 060V230 7000 OVC009 05/05 Q1025
10:20
I
5 °C 4,8 km 800 ft 080° 080° 6 kt METAR EDHI 300920Z 08006KT 4800 BR OVC008 05/05 Q1025
09:50
I
5 °C 4,5 km 800 ft 070° 070° 5 kt METAR EDHI 300850Z 07005KT 050V110 4500 BR OVC008 05/05 Q1024
09:20
I
5 °C 4,9 km 800 ft 080° 080° 5 kt METAR EDHI 300820Z 08005KT 060V120 4900 BR OVC008 05/04 Q1024
08:50
I
5 °C 4,8 km 700 ft 080° 080° 5 kt METAR EDHI 300750Z 08005KT 040V110 4800 BR OVC007 05/04 Q1024
08:20
I
5 °C 4,8 km 800 ft 080° 080° 6 kt METAR EDHI 300720Z 08006KT 4800 BR OVC008 05/04 Q1024
07:50
I
5 °C 4,9 km 700 ft 080° 080° 7 kt METAR EDHI 300650Z 08007KT 4900 BR OVC007 05/04 Q1023
07:20
I
4 °C 4,6 km 700 ft 080° 080° 7 kt METAR EDHI 300620Z 08007KT 4600 BR OVC007 04/04 Q1023
06:50
I
4 °C 4,7 km 700 ft 080° 080° 6 kt METAR EDHI 300550Z 08006KT 4700 BR OVC007 04/04 Q1023
06:20
I
4 °C 4,7 km 700 ft 080° 080° 6 kt METAR EDHI 300520Z 08006KT 050V110 4700 BR BKN007 04/04 Q1023
05:50
I
4 °C 4,7 km 700 ft 080° 080° 5 kt METAR EDHI 300450Z AUTO 08005KT 050V110 4700 // OVC007/// 04/04 Q1023
05:20
I
4 °C 4,7 km 800 ft 080° 080° 6 kt METAR EDHI 300420Z AUTO 08006KT 050V110 4700 // OVC008/// 04/04 Q1023
04:50
I
4 °C 4,7 km 800 ft 080° 080° 6 kt METAR EDHI 300350Z AUTO 08006KT 4700 // OVC008/// 04/04 Q1023
04:20
I
4 °C 4,8 km 800 ft 080° 080° 5 kt METAR EDHI 300320Z AUTO 08005KT 050V110 4800 // OVC008/// 04/04 Q1022
03:50
I
4 °C 5 km 800 ft 070° 070° 5 kt METAR EDHI 300250Z AUTO 07005KT 040V100 5000 // OVC008/// 04/04 Q1022
03:20
I
4 °C 5 km 800 ft 080° 080° 5 kt SPECI EDHI 300220Z AUTO 08005KT 050V110 5000 // OVC008/// 04/04 Q1022
02:50
I
4 °C 5 km 900 ft 080° 080° 6 kt METAR EDHI 300150Z AUTO 08006KT 5000 // OVC009/// 04/04 Q1022
02:20
I
4 °C 5 km 800 ft 090° 090° 5 kt METAR EDHI 300120Z AUTO 09005KT 060V150 5000 // OVC008/// 04/04 Q1022
01:50
I
5 °C 5 km 900 ft 090° 090° 5 kt METAR EDHI 300050Z AUTO 09005KT 060V130 5000 // OVC009/// 05/04 Q1022
01:20
I
4 °C 5 km 800 ft 090° 090° 5 kt METAR EDHI 300020Z AUTO 09005KT 050V120 5000 // OVC008/// 04/04 Q1022
00:50
I
5 °C 5 km 800 ft 090° 090° 5 kt METAR EDHI 292350Z AUTO 09005KT 060V130 5000 // OVC008/// 05/04 Q1022
00:20
I
4 °C 4,9 km 800 ft 090° 090° 5 kt METAR EDHI 292320Z AUTO 09005KT 060V120 4900 // OVC008/// 04/04 Q1022

29 november 2022

Tijd Code Weer Temp. Zicht Plafond Wind METAR/SPECI
23:50
I
5 °C 4,7 km 800 ft 090° 090° 6 kt METAR EDHI 292250Z AUTO 09006KT 060V130 4700 // OVC008/// 05/04 Q1022
23:20
I
5 °C 4,6 km 700 ft 090° 090° 6 kt METAR EDHI 292220Z AUTO 09006KT 060V120 4600 // OVC007/// 05/04 Q1022
22:50
I
5 °C 4,3 km 700 ft 090° 090° 4 kt METAR EDHI 292150Z AUTO 09004KT 050V120 4300 // OVC007/// 05/04 Q1021
22:20
I
5 °C 4,3 km 700 ft 100° 100° 4 kt METAR EDHI 292120Z AUTO 10004KT 060V130 4300 // OVC007/// 05/04 Q1021
21:50
I
5 °C 4,5 km 700 ft 090° 090° 6 kt METAR EDHI 292050Z AUTO 09006KT 050V130 4500 // OVC007/// 05/04 Q1021
21:20
I
5 °C 4,5 km 700 ft 100° 100° 4 kt METAR EDHI 292020Z AUTO 10004KT 050V130 4500 // OVC007/// 05/04 Q1021
20:50
I
5 °C 4,4 km 800 ft 090° 090° 5 kt METAR EDHI 291950Z AUTO 09005KT 050V130 4400 // OVC008/// 05/04 Q1021
20:20
I
4 °C 4,2 km 800 ft 090° 090° 5 kt METAR EDHI 291920Z AUTO 09005KT 060V120 4200 // OVC008/// 04/04 Q1021
19:50
I
4 °C 4,8 km 800 ft 110° 110° 5 kt METAR EDHI 291850Z AUTO 11005KT 070V170 4800 // OVC008/// 04/04 Q1021
19:20
I
4 °C 4,7 km 800 ft 110° 110° 5 kt METAR EDHI 291820Z 11005KT 060V150 4700 OVC008 04/04 Q1021
18:50
I
4 °C 5 km 900 ft 110° 110° 5 kt METAR EDHI 291750Z 11005KT 070V160 5000 -DZ BR OVC009 04/04 Q1020
18:20
M
5 °C 5 km 1.100 ft 110° 110° 6 kt METAR EDHI 291720Z 11006KT 070V180 5000 -DZ BR SCT009 OVC011 05/04 Q1020
17:50
M
5 °C 5 km 1.000 ft 110° 110° 6 kt METAR EDHI 291650Z 11006KT 070V160 5000 -DZ BR OVC010 05/04 Q1020
17:20
M
5 °C 5 km 1.000 ft 110° 110° 5 kt METAR EDHI 291620Z 11005KT 070V150 5000 -DZ BR OVC010 05/04 Q1020
16:50
I
4 °C 5 km 900 ft 110° 110° 4 kt METAR EDHI 291550Z 11004KT 060V160 5000 -DZ BR OVC009 04/04 Q1020
16:20
I
4 °C 4,3 km 900 ft 110° 110° 4 kt METAR EDHI 291520Z 11004KT 070V160 4300 -DZ BR BKN009 OVC037 04/04 Q1019
15:50
I
5 °C 4,8 km 1.000 ft 110° 110° 3 kt METAR EDHI 291450Z 11003KT 060V140 4800 -DZ BR BKN010 05/04 Q1019
15:20
I
5 °C 4,5 km 1.000 ft 120° 120° 3 kt METAR EDHI 291420Z 12003KT 080V250 4500 -DZ BR BKN010 OVC020 05/04 Q1019
14:50
I
5 °C 4,6 km 900 ft 110° 110° 5 kt METAR EDHI 291350Z 11005KT 050V170 4600 -DZ BR BKN009 OVC019 05/04 Q1019
14:20
I
5 °C 4,6 km 900 ft 100° 100° 4 kt METAR EDHI 291320Z 10004KT 040V150 4600 -DZ BR BKN009 OVC019 05/04 Q1019
13:50
I
4 °C 4,6 km 800 ft 100° 100° 4 kt METAR EDHI 291250Z 10004KT 050V140 4600 -DZ BR BKN008 OVC018 04/04 Q1019
13:20
I
4 °C 4,7 km 1.900 ft 100° 100° 4 kt METAR EDHI 291220Z 10004KT 060V130 4700 -DZ BR SCT008 OVC019 04/04 Q1018
12:50
I
4 °C 4,6 km 1.900 ft 100° 100° 4 kt METAR EDHI 291150Z 10004KT 060V120 4600 -RA SCT009 OVC019 04/04 Q1018
12:20
I
4 °C 4,3 km 2.000 ft 100° 100° 4 kt METAR EDHI 291120Z 10004KT 040V140 4300 -RA SCT008 OVC020 04/04 Q1018
11:50
I
4 °C 4,5 km 2.100 ft 110° 110° 5 kt METAR EDHI 291050Z 11005KT 080V160 4500 -RA SCT008 OVC021 04/04 Q1018
11:20
I
4 °C 4,7 km 2.100 ft 110° 110° 5 kt METAR EDHI 291020Z 11005KT 060V150 4700 -RA BKN021 OVC024 04/04 Q1018
10:50
I
4 °C 4,7 km 2.300 ft 100° 100° 6 kt METAR EDHI 290950Z 10006KT 060V140 4700 BR SCT008 OVC023 04/04 Q1018
10:20
I
4 °C 4,7 km 2.300 ft 100° 100° 7 kt METAR EDHI 290920Z 10007KT 070V130 4700 BR SCT008 OVC023 04/04 Q1018
09:50
I
4 °C 4,6 km 2.300 ft 110° 110° 4 kt METAR EDHI 290850Z 11004KT 040V170 4600 BR SCT009 BKN023 04/04 Q1018
09:20
M
4 °C 6 km 2.200 ft 110° 110° 6 kt METAR EDHI 290820Z 11006KT 080V140 6000 SCT009 OVC022 04/03 Q1017
08:50
I
4 °C 4,9 km 2.500 ft 110° 110° 6 kt METAR EDHI 290750Z 11006KT 070V140 4900 BR SCT008 BKN025 04/04 Q1017
08:20
I
4 °C 6 km 800 ft 100° 100° 6 kt METAR EDHI 290720Z 10006KT 070V130 6000 BKN008 BKN025 04/03 Q1017
07:50
I
4 °C 6 km 900 ft 110° 110° 6 kt METAR EDHI 290650Z 11006KT 070V140 6000 BKN009 BKN025 04/03 Q1017
07:20
I
4 °C 6 km 900 ft 110° 110° 5 kt METAR EDHI 290620Z 11005KT 070V150 6000 BKN009 BKN025 04/04 Q1017
06:50
I
4 °C 6 km 900 ft 110° 110° 4 kt METAR EDHI 290550Z 11004KT 070V150 6000 BKN009 BKN026 04/04 Q1016
06:20
M
4 °C 6 km 2.800 ft 110° 110° 6 kt METAR EDHI 290520Z 11006KT 080V150 6000 SCT009 BKN028 04/04 Q1016
05:50
M
4 °C 6 km 2.800 ft 110° 110° 5 kt METAR EDHI 290450Z 11005KT 070V140 6000 SCT009 BKN028 04/04 Q1016

28 november 2022

Tijd Code Weer Temp. Zicht Plafond Wind METAR/SPECI
19:50
V
4 °C 10 km+ 4.900 ft 110° 110° 6 kt METAR EDHI 281850Z 11006KT 070V150 9999 -RA OVC049 04/04 Q1013
19:20
V
4 °C 10 km+ - 110° 110° 7 kt METAR EDHI 281820Z 11007KT 070V140 9999 -RA SCT045 04/04 Q1013
18:50
V
4 °C 9 km - 110° 110° 5 kt METAR EDHI 281750Z 11005KT 070V140 9000 -RA FEW050 04/04 Q1013
18:20
V
4 °C 10 km+ 4.900 ft 110° 110° 6 kt METAR EDHI 281720Z 11006KT 080V140 9999 -RA BKN049 04/04 Q1013
17:50
V
4 °C 10 km+ - 120° 120° 6 kt METAR EDHI 281650Z 12006KT 080V170 9999 -RA FEW049 04/04 Q1013
17:20
V
4 °C 10 km+ - 110° 110° 6 kt METAR EDHI 281620Z 11006KT 080V150 9999 -RA NSC 04/04 Q1013
16:50
V
4 °C 10 km+ - 120° 120° 6 kt METAR EDHI 281550Z 12006KT 070V180 9999 -RA NSC 04/04 Q1013
16:20
V
4 °C 10 km+ - 120° 120° 6 kt METAR EDHI 281520Z 12006KT 090V160 9999 -RA FEW033 04/04 Q1013
15:50
V
4 °C 10 km+ - 120° 120° 6 kt METAR EDHI 281450Z 12006KT 040V170 9999 -RA FEW009 04/04 Q1012
15:20
V
5 °C 10 km+ - 110° 110° 7 kt METAR EDHI 281420Z 11007KT 080V150 9999 -RA SCT009 05/04 Q1012
14:50
V
5 °C 9 km - 110° 110° 6 kt METAR EDHI 281350Z 11006KT 070V150 9000 -RA FEW011 05/05 Q1012
14:20
V
5 °C 10 km+ - 110° 110° 6 kt METAR EDHI 281320Z 11006KT 070V160 9999 -RA FEW010 SCT049 05/05 Q1012
13:50
V
5 °C 10 km+ - 110° 110° 7 kt METAR EDHI 281250Z 11007KT 080V140 9999 -RA FEW049 05/04 Q1012
13:20
V
5 °C 10 km+ 4.800 ft 110° 110° 5 kt METAR EDHI 281220Z 11005KT 070V150 9999 FEW025 BKN048 05/04 Q1012
12:50
V
5 °C 10 km+ 4.600 ft 110° 110° 7 kt METAR EDHI 281150Z 11007KT 080V170 9999 -RA FEW023 BKN046 05/04 Q1012
12:20
V
5 °C 10 km+ 4.900 ft 110° 110° 6 kt METAR EDHI 281120Z 11006KT 070V160 9999 -RA FEW036 BKN049 05/04 Q1012
11:50
V
5 °C 10 km+ - 120° 120° 6 kt METAR EDHI 281050Z 12006KT 080V160 9999 -RA FEW048 05/04 Q1012
11:20
V
5 °C 10 km+ - 120° 120° 6 kt METAR EDHI 281020Z 12006KT 080V160 9999 -RA FEW033 SCT047 05/04 Q1013
10:50
M
5 °C 10 km+ 2.800 ft 120° 120° 5 kt METAR EDHI 280950Z 12005KT 080V150 9999 -RA BKN028 05/04 Q1013

Wij en derden volgen je internetgedrag op onze website met cookies. Als je doorgaat, gaan we ervan uit dat je akkoord gaat met onze cookiebeleid.